When you browse on this site, cookies collect data to enhance your experience and personalize the content and advertising you see.
Visit our Privacy Policy to learn more. By continuing to use the site, you agree to this use of cookies and data.
  • în România
  • Lista ţărilor
  • Pe 7 zile
  • Temperatura apei
  • Hartă satelitară
  • Meteo pe hartă
  • Widget-uri
  • user-avatar
    Intrare

    Meteo pe oră la Guntur

    Astăzi, 16 Februarie, Sâmbătă

    Timp Temperatura Precipitaţii Vânt Presiune Umiditate
    00:00 +23°C° 0 mm 2 m/s 758 mmHg 87%
    01:00 +23°C° 0 mm 2 m/s 758 mmHg 89%
    02:00 +23°C° 0 mm 2 m/s 758 mmHg 90%
    03:00 +23°C° 0 mm 2 m/s 758 mmHg 91%
    04:00 +23°C° 0 mm 2 m/s 758 mmHg 92%
    05:00 +23°C° 0 mm 2 m/s 757 mmHg 93%
    06:00 +25°C° 0 mm 2 m/s 758 mmHg 85%
    07:00 +26°C° 0 mm 2 m/s 758 mmHg 77%
    08:00 +28°C° 0 mm 3 m/s 759 mmHg 69%
    09:00 +30°C° 0 mm 3 m/s 759 mmHg 61%
    10:00 +31°C° 0 mm 3 m/s 759 mmHg 54%
    11:00 +34°C° 0 mm 3 m/s 759 mmHg 46%
    12:00 +35°C° 0 mm 3 m/s 758 mmHg 42%
    13:00 +36°C° 0 mm 4 m/s 757 mmHg 38%
    14:00 +38°C° 0 mm 4 m/s 756 mmHg 34%
    15:00 +36°C° 0 mm 4 m/s 756 mmHg 37%
    16:00 +35°C° 0 mm 5 m/s 756 mmHg 41%
    17:00 +34°C° 0 mm 5 m/s 756 mmHg 44%
    18:00 +32°C° 0 mm 4 m/s 756 mmHg 53%
    19:00 +29°C° 0 mm 4 m/s 757 mmHg 62%
    20:00 +27°C° 0 mm 4 m/s 757 mmHg 71%
    21:00 +27°C° 0 mm 4 m/s 758 mmHg 76%
    22:00 +26°C° 0 mm 3 m/s 758 mmHg 80%
    23:00 +26°C° 0 mm 3 m/s 758 mmHg 85%

    Mâine, 17 Februarie, Duminică

    Timp Temperatura Precipitaţii Vânt Presiune Umiditate
    00:00 +26°C° 0 mm 3 m/s 757 mmHg 87%
    01:00 +25°C° 0 mm 2 m/s 757 mmHg 90%
    02:00 +25°C° 0 mm 1 m/s 757 mmHg 92%
    03:00 +25°C° 0 mm 1 m/s 757 mmHg 93%
    04:00 +24°C° 0 mm 1 m/s 757 mmHg 94%
    05:00 +24°C° 0 mm 1 m/s 757 mmHg 95%
    06:00 +26°C° 0 mm 1 m/s 757 mmHg 88%
    07:00 +27°C° 0 mm 2 m/s 758 mmHg 81%
    08:00 +29°C° 0 mm 2 m/s 758 mmHg 75%
    09:00 +31°C° 0 mm 2 m/s 758 mmHg 64%
    10:00 +34°C° 0 mm 3 m/s 758 mmHg 54%
    11:00 +36°C° 0 mm 3 m/s 758 mmHg 44%
    12:00 +37°C° 0 mm 3 m/s 757 mmHg 42%
    13:00 +37°C° 0 mm 3 m/s 756 mmHg 40%
    14:00 +38°C° 0 mm 3 m/s 755 mmHg 37%
    15:00 +37°C° 0 mm 3 m/s 755 mmHg 41%
    16:00 +36°C° 0 mm 4 m/s 754 mmHg 45%
    17:00 +35°C° 0 mm 4 m/s 754 mmHg 49%
    18:00 +33°C° 0 mm 4 m/s 755 mmHg 60%
    19:00 +29°C° 0 mm 3 m/s 755 mmHg 72%
    20:00 +27°C° 0 mm 3 m/s 756 mmHg 83%
    21:00 +27°C° 0 mm 3 m/s 756 mmHg 87%
    22:00 +26°C° 0 mm 2 m/s 756 mmHg 91%
    23:00 +26°C° 0 mm 2 m/s 756 mmHg 95%

    Poimâine, 18 Februarie, Luni

    Timp Temperatura Precipitaţii Vânt Presiune Umiditate
    00:00 +26°C° 0.2 mm 1 m/s 756 mmHg 95%
    01:00 +25°C° 0.2 mm 1 m/s 755 mmHg 96%
    02:00 +23°C° 0.2 mm 0 m/s 755 mmHg 97%
    03:00 +23°C° 0.2 mm 0 m/s 755 mmHg 97%
    04:00 +23°C° 0.2 mm 0 m/s 755 mmHg 97%
    05:00 +23°C° 0.2 mm 0 m/s 755 mmHg 97%
    06:00 +24°C° 0 mm 0 m/s 756 mmHg 91%
    07:00 +26°C° 0 mm 0 m/s 757 mmHg 85%
    08:00 +27°C° 0 mm 0 m/s 757 mmHg 79%
    09:00 +31°C° 0 mm 1 m/s 757 mmHg 67%
    10:00 +34°C° 0 mm 1 m/s 757 mmHg 55%
    11:00 +37°C° 0 mm 2 m/s 757 mmHg 44%
    12:00 +37°C° 0 mm 2 m/s 756 mmHg 42%
    13:00 +37°C° 0 mm 2 m/s 755 mmHg 39%
    14:00 +37°C° 0 mm 2 m/s 754 mmHg 37%
    15:00 +37°C° 0 mm 3 m/s 754 mmHg 38%
    16:00 +36°C° 0 mm 3 m/s 754 mmHg 40%
    17:00 +35°C° 0 mm 4 m/s 753 mmHg 42%
    18:00 +33°C° 0 mm 4 m/s 754 mmHg 51%
    19:00 +30°C° 0 mm 3 m/s 755 mmHg 59%
    20:00 +29°C° 0 mm 3 m/s 756 mmHg 68%
    21:00 +28°C° 0 mm 3 m/s 756 mmHg 72%
    22:00 +27°C° 0 mm 2 m/s 756 mmHg 76%
    23:00 +27°C° 0 mm 2 m/s 756 mmHg 80%

    19 Februarie, Marţi

    Timp Temperatura Precipitaţii Vânt Presiune Umiditate
    00:00 +26°C° 0 mm 2 m/s 755 mmHg 84%
    01:00 +26°C° 0 mm 1 m/s 755 mmHg 87%
    02:00 +25°C° 0 mm 1 m/s 755 mmHg 90%
    03:00 +25°C° 0 mm 1 m/s 755 mmHg 92%
    04:00 +25°C° 0 mm 1 m/s 755 mmHg 94%
    05:00 +25°C° 0 mm 1 m/s 755 mmHg 95%
    06:00 +26°C° 0 mm 1 m/s 756 mmHg 89%
    07:00 +28°C° 0 mm 2 m/s 757 mmHg 82%
    08:00 +29°C° 0 mm 2 m/s 758 mmHg 76%
    09:00 +31°C° 0 mm 3 m/s 758 mmHg 65%
    10:00 +35°C° 0 mm 3 m/s 758 mmHg 54%
    11:00 +37°C° 0 mm 3 m/s 758 mmHg 43%
    12:00 +37°C° 0 mm 4 m/s 757 mmHg 40%
    13:00 +38°C° 0 mm 4 m/s 756 mmHg 37%
    14:00 +40°C° 0 mm 4 m/s 755 mmHg 34%
    15:00 +37°C° 0 mm 5 m/s 755 mmHg 39%
    16:00 +36°C° 0 mm 5 m/s 755 mmHg 43%
    17:00 +34°C° 0 mm 6 m/s 756 mmHg 48%
    18:00 +32°C° 0 mm 5 m/s 756 mmHg 58%
    19:00 +29°C° 0 mm 4 m/s 757 mmHg 68%
    20:00 +28°C° 0 mm 3 m/s 758 mmHg 78%
    21:00 +27°C° 0 mm 3 m/s 758 mmHg 82%
    22:00 +26°C° 0 mm 2 m/s 758 mmHg 87%
    23:00 +26°C° 0 mm 2 m/s 759 mmHg 91%

    20 Februarie, Miercuri

    Timp Temperatura Precipitaţii Vânt Presiune Umiditate
    00:00 +25°C° 0 mm 2 m/s 758 mmHg 92%
    01:00 +25°C° 0 mm 2 m/s 758 mmHg 94%
    02:00 +25°C° 0 mm 2 m/s 757 mmHg 95%
    03:00 +25°C° 0 mm 2 m/s 758 mmHg 95%
    04:00 +25°C° 0 mm 2 m/s 758 mmHg 95%
    05:00 +25°C° 0 mm 1 m/s 758 mmHg 96%
    06:00 +26°C° 0 mm 2 m/s 759 mmHg 88%
    07:00 +28°C° 0 mm 3 m/s 759 mmHg 80%
    08:00 +29°C° 0 mm 3 m/s 760 mmHg 73%
    09:00 +31°C° 0 mm 3 m/s 760 mmHg 62%
    10:00 +34°C° 0 mm 4 m/s 760 mmHg 52%
    11:00 +36°C° 0 mm 4 m/s 760 mmHg 41%
    12:00 +37°C° 0 mm 4 m/s 759 mmHg 38%
    13:00 +39°C° 0 mm 5 m/s 758 mmHg 35%
    14:00 +39°C° 0 mm 5 m/s 757 mmHg 33%
    15:00 +37°C° 0 mm 5 m/s 757 mmHg 36%
    16:00 +35°C° 0 mm 5 m/s 757 mmHg 40%
    17:00 +34°C° 0 mm 5 m/s 757 mmHg 43%
    18:00 +30°C° 0 mm 5 m/s 758 mmHg 56%
    19:00 +28°C° 0 mm 4 m/s 759 mmHg 68%
    20:00 +26°C° 0 mm 3 m/s 760 mmHg 81%
    21:00 +25°C° 0 mm 2 m/s 760 mmHg 85%
    22:00 +25°C° 0 mm 2 m/s 760 mmHg 89%
    23:00 +24°C° 0 mm 1 m/s 760 mmHg 93%

    21 Februarie, Joi

    Timp Temperatura Precipitaţii Vânt Presiune Umiditate
    00:00 +24°C° 0 mm 1 m/s 760 mmHg 93%
    01:00 +24°C° 0 mm 1 m/s 759 mmHg 94%
    02:00 +21°C° 0 mm 0 m/s 759 mmHg 94%
    03:00 +21°C° 0 mm 0 m/s 759 mmHg 95%
    04:00 +23°C° 0 mm 1 m/s 759 mmHg 95%
    05:00 +23°C° 0 mm 1 m/s 759 mmHg 95%
    06:00 +24°C° 0 mm 1 m/s 760 mmHg 89%
    07:00 +26°C° 0 mm 1 m/s 760 mmHg 82%
    08:00 +27°C° 0 mm 2 m/s 761 mmHg 75%
    09:00 +30°C° 0 mm 2 m/s 761 mmHg 61%
    10:00 +34°C° 0 mm 3 m/s 761 mmHg 47%
    11:00 +36°C° 0 mm 3 m/s 760 mmHg 33%
    12:00 +37°C° 0 mm 3 m/s 760 mmHg 30%
    13:00 +38°C° 0 mm 4 m/s 759 mmHg 26%
    14:00 +40°C° 0 mm 4 m/s 758 mmHg 23%
    15:00 +38°C° 0 mm 4 m/s 758 mmHg 25%
    16:00 +37°C° 0 mm 5 m/s 758 mmHg 27%
    17:00 +35°C° 0 mm 5 m/s 758 mmHg 29%
    18:00 +33°C° 0 mm 4 m/s 758 mmHg 43%
    19:00 +29°C° 0 mm 3 m/s 759 mmHg 56%
    20:00 +26°C° 0 mm 3 m/s 760 mmHg 69%
    21:00 +25°C° 0 mm 2 m/s 760 mmHg 73%
    22:00 +25°C° 0 mm 2 m/s 759 mmHg 77%
    23:00 +24°C° 0 mm 2 m/s 759 mmHg 82%
    Arată mai mult